Location: Unnamed
(53.9021°N, 27.5568°E)
Time: 00:36:49
(UTC+03:00)

STARLINK-73 - Pass Details

Date: 21 January 2020
Orbit: 528 x 531 km, 53.0° (Epoch: 24 February)

Event Time Altitude Azimuth Distance (km) Brightness Sun altitude
Exits shadow 07:55:56 - 234° (SW) 2,525 6.7 -11.1°
Reaches altitude 10° 07:57:51 10° 228° (SW) 1,776 5.9 -10.8°
Maximum altitude 08:01:42 45° 156° (SSE) 731 4.6 -10.3°
Drops below altitude 10° 08:05:34 10° 83° (E) 1,784 7.3 -9.7°
Sets 08:07:51 0° 77° (ENE) 2,677 8.2 -9.4°
